C/2024 J3 ( ATLAS )

Japanese version
Home page
Updated on January 31, 2026

---------------------------------------------------------------------

* Profile

Discovery Date May 6, 2024
Magnitude 17.6 mag
Discoverer Asteroid Terrestrial-Impact Last Alert System (ATLAS) search program

* Pictures

* Orbital Elements

Epoch 2025 May 5.0 TT = JDT 2460800.5
T 2026 Nov. 25.31982 TT                                 Pike
q   3.8651277            (2000.0)            P               Q
z  -0.0002033      Peri.   74.08876     +0.30471501     -0.19907697
 +/-0.0000023      Node   285.96123     -0.55223489     +0.75982813
e   1.0007859      Incl.   75.63927     +0.77600605     +0.61889383
From 740 observations 2024 May 6-2025 Aug. 6, mean residual 0".5.

* Finding Charts

* Magnitudes Graph

        m1 = 4.2 + 5 log d + 10.0 log r

---------------------------------------------------------------------

The orbital elements are published on M.P.E.C. 2025-P113.
The charts are made with StellaNavigator Ver.11 (AstroArts).
The magnitudes graphs are made with Comet for Windows.

---------------------------------------------------------------------

Copyright(C) Seiichi Yoshida (comet@aerith.net). All rights reserved.